Date,TemperatureHighF,TemperatureAvgF,TemperatureLowF,DewpointHighF,DewpointAvgF,DewpointLowF,HumidityHigh,HumidityAvg,HumidityLow,PressureMaxIn,PressureMinIn,WindSpeedMaxMPH,WindSpeedAvgMPH,GustSpeedMaxMPH,PrecipitationSumIn
2013-9-1,84.5,78.5,74.3,71.2,69.1,65.8,88,73,61,29.91,29.83,6,2,13,0.00
2013-9-2,82.2,76.8,74.2,73.0,71.0,67.4,93,83,66,29.86,29.76,4,1,10,0.14
2013-9-3,80.7,74.7,69.9,72.1,61.7,51.8,96,67,38,29.93,29.76,9,4,22,0.00
2013-9-4,79.7,71.6,62.7,57.5,54.1,47.1,79,56,37,30.05,29.92,7,4,19,0.01
2013-9-5,75.8,70.0,62.1,57.3,48.9,36.2,74,50,26,30.19,29.98,9,4,18,0.00
2013-9-6,71.2,63.1,55.5,43.7,38.3,33.0,55,41,25,30.30,30.18,7,3,15,0.00
2013-9-7,78.3,67.2,53.2,49.6,44.9,38.4,76,47,27,30.18,29.95,8,2,17,0.00
2013-9-8,79.4,71.6,63.8,60.4,51.2,39.1,69,50,30,30.12,29.87,12,5,23,0.00
2013-9-9,70.7,64.8,56.2,56.3,46.0,39.1,66,51,36,30.28,30.12,6,3,14,0.00
2013-9-10,85.8,76.4,68.1,70.2,65.0,56.3,80,69,57,30.21,30.08,9,3,18,0.00
2013-9-11,92.9,83.3,74.4,72.2,70.4,68.0,89,67,47,30.15,30.01,7,3,18,0.00
2013-9-12,84.3,77.5,69.8,71.7,68.3,66.4,91,74,60,30.03,29.71,13,2,35,0.31
2013-9-13,75.0,68.4,59.0,66.6,56.9,45.1,93,69,43,29.90,29.68,11,5,23,0.09
2013-9-14,65.0,58.6,53.8,45.2,42.7,40.8,66,56,44,30.17,29.90,9,5,20,0.00
2013-9-15,71.5,60.9,48.8,49.6,42.8,35.9,76,54,28,30.26,30.12,6,2,14,0.00
2013-9-16,70.7,63.6,59.1,57.3,50.5,45.8,89,64,42,30.27,30.07,7,3,17,0.05
2013-9-17,64.3,56.5,48.7,46.6,34.5,28.8,63,45,27,30.48,30.28,10,4,23,0.00
2013-9-18,72.0,60.2,49.6,49.7,42.1,35.1,72,54,27,30.39,30.23,5,2,11,0.00
2013-9-19,76.0,63.9,51.4,53.2,46.8,41.7,78,57,31,30.24,30.11,7,2,14,0.00
2013-9-20,78.0,66.6,56.0,55.7,53.2,50.9,84,64,42,30.13,30.03,6,2,13,0.00
2013-9-21,79.1,67.6,56.4,65.8,58.3,50.9,90,74,38,30.06,29.70,9,3,22,0.16
2013-9-22,68.8,62.8,55.0,65.7,48.6,38.6,94,63,39,29.95,29.69,10,5,22,0.46
2013-9-23,64.1,56.6,49.9,40.4,37.7,34.9,62,50,37,30.09,29.96,9,5,22,0.00
2013-9-24,73.4,59.2,46.4,42.4,38.6,33.8,74,49,27,30.10,29.92,8,3,16,0.00
2013-9-25,72.9,62.2,49.5,48.4,41.9,36.8,74,49,31,30.01,29.92,4,1,9,0.00
2013-9-26,68.8,62.2,54.6,54.7,52.0,47.9,81,70,53,30.14,29.98,7,2,15,0.00
2013-9-27,66.9,61.7,55.6,54.8,47.6,44.8,78,60,45,30.31,30.14,6,3,12,0.00
2013-9-28,71.6,63.9,56.4,51.0,48.4,43.5,76,59,37,30.36,30.28,7,3,17,0.00
2013-9-29,70.1,61.8,54.9,54.5,50.9,48.8,85,69,48,30.28,30.12,5,1,11,0.00
2013-9-30,73.7,62.8,51.9,53.2,49.4,44.4,88,64,36,30.13,30.01,4,1,9,0.00